Tracking 22124 objects as of 25-Jan-2021
HD Live streaming from Space Station
objects crossing your sky now

STARLINK-1291

Track STARLINK-1291 now!
10-day predictions
STARLINK-1291 is classified as:


NORAD ID: 45393
Int'l Code: 2020-019AK
Perigee: 552.7 km
Apogee: 556.0 km
Inclination: 53.1 °
Period: 95.6 minutes
Semi major axis: 6925 km
RCS: Unknown
Launch date: March 18, 2020
Source: United States (US)
Launch site: AIR FORCE EASTERN TEST RANGE (AFETR)
aabbcc
Your satellite tracking list
Your tracking list is empty




NASA's NSSDC Master Catalog

Two Line Element Set (TLE):
1 45393U 20019AK  21024.94221910  .00000318  00000-0  40244-4 0  9993
2 45393  53.0545 260.2231 0002355  79.6333 280.4921 15.06401923 47952
Source of the keplerian elements: AFSPC